Home   Weather   Belleville   Past weeks

Flag for Canada Past Weather in Belleville, Ontario, Canada — Yesterday and Last 2 Weeks

Now
52 °F

Overcast.


Feels Like: 51 °F
Forecast: 47 / 62 °F
Wind: 3 mph from Southwest

Location: Trenton

Current Time: Apr 29, 2017 at 3:28:48 am

Latest Report: Apr 29, 2017 at 2:00 am


Visibility: 15 mi

Pressure: 29.95 "Hg

Humidity: 77%

Dew Point: 45 °F

Location of BellevilleLocation

Past Weather in Belleville — Graph

°F

Belleville Temperature Yesterday

Maximum temperature yesterday: 64 °F (at 6:00 pm)
Minimum temperature yesterday: 48 °F (at 5:00 am)
Average temperature yesterday: 56 °F

High & Low Weather Summary for the Past Weeks

 TemperatureHumidityPressure
High79 °F (Apr 27, 4:00 pm)100% (Apr 14, 6:00 am)30.49 "Hg (Apr 14, 6:00 am)
Low28 °F (Apr 18, 5:00 am)33% (Apr 14, 3:00 pm)29.55 "Hg (Apr 27, 7:00 pm)
Average50 °F77%30.02 "Hg
* Reported Apr 14 2:00 am — Apr 29 2:00 am, Belleville, Weather by CustomWeather, © 2017

Note: Actual official high and low records may vary slightly from our data, if they occured in-between our weather recording intervals... More about our weather records

Advertising

Belleville Weather History for the Previous 24 Hours

Scroll right to see more
 ConditionsComfort  
Time TempWeatherWind HumidityBarometerVisibility
2:00 am
Sat, Apr 29
52 °FOvercast.3 mph77%29.95 "Hg15 mi
1:00 am52 °FOvercast.7 mph77%29.97 "Hg15 mi
12:00 am50 °FPassing clouds.7 mph82%29.97 "Hg15 mi
11:00 pm
Fri, Apr 28
50 °FPassing clouds.7 mph82%29.98 "Hg15 mi
10:00 pm52 °FOvercast.10 mph72%29.97 "Hg15 mi
9:00 pm57 °FPassing clouds.9 mph63%29.96 "Hg15 mi
8:00 pm61 °FPartly sunny.12 mph48%29.97 "Hg15 mi
7:00 pm63 °FPartly sunny.16 mph49%29.99 "Hg15 mi
6:00 pm64 °FBroken clouds.18 mph52%29.98 "Hg15 mi
5:00 pm63 °FScattered clouds.15 mph56%29.98 "Hg15 mi
4:00 pm61 °FPartly sunny.12 mph59%29.99 "Hg15 mi
3:00 pm61 °FPartly sunny.13 mph59%30.01 "Hg15 mi
2:00 pm57 °FScattered clouds.15 mph63%30.01 "Hg15 mi
1:00 pm57 °FPartly sunny.14 mph63%30.01 "Hg12 mi
12:00 pm55 °FMostly cloudy.15 mph72%30.01 "Hg12 mi
11:00 am54 °FMostly cloudy.14 mph77%30.03 "Hg12 mi
10:00 am55 °FMore clouds than sun.9 mph72%29.99 "Hg15 mi
9:00 am54 °FPartly sunny.8 mph88%30.00 "Hg15 mi
8:00 am54 °FPartly sunny.5 mph82%29.97 "Hg15 mi
7:00 am48 °FScattered clouds.6 mph94%29.93 "Hg15 mi
6:00 am48 °FPartly cloudy.3 mph94%29.90 "Hg15 mi
5:00 am48 °FPassing clouds.8 mph100%29.87 "Hg15 mi
4:00 am54 °FPassing clouds.8 mph82%29.83 "Hg15 mi
3:00 am54 °FPassing clouds.9 mph94%29.79 "Hg15 mi
Weather by CustomWeather, © 2017

See weather overviewHow to use our weather pages